DMSP 5D-2 F13 DEB, 40563

Orbit data source: Space-Track

DMSP 5D-2 F13 DEB, 40563 is space debris in SSO originally from a launch on Fri, 24 Mar 1995 UTC launched from the Air Force Western Test Range (AFWTR). Debris objects in space refer to the collection of defunct objects orbiting the Earth. Examples of debris include non-operational satellites, rocket bodies, and fragments generated from explosions, collisions, or faulty payload assembly.

Loading next visibility...
Identifier
40563, 1995-015DW
Orbit
SSO
Country
Flag of USUS
Related business
Manufacturer
Unknown
Mission
Spacecraft
Bus & Motor
Unknown
Mass
Unknown
Launch date (UTC)
1995-03-24 (31 years ago)
Launch vehicle
Unknown
Launch site
Air Force Western Test Range (AFWTR)
Object type
Payload
Rocket body
Debris
Shape & HBR
Unknown shape, 0.1 m
Radar Cross Section
Small (<0.1 m²)

Expand to show TLE details & history
Last TLE update: 13 hours ago

TLE from 13 hours ago
0 DMSP 5D-2 F13 DEB
1 40563U 95015DW  25343.33540290  .00008877  00000-0  26876-2 0  9992
2 40563  98.6605  17.9004 0018427 181.0465 179.0689 14.42426643555610
Epoch: 2025-12-09T08:02Z
TLE epoch observation values (Epoch: 2025-12-09T08:02:58.810Z)
Latitude
0.00002°
Longitude
178.8338°
Altitude
766.576 km
Speed
7.464 km/s
True Right ascension
01h 11m 36s
True Declination
0° 00' 00"
Sunlit
Object was in full shadow at epoch
Visualization orbit readout
Latitude
Unknown
Longitude
Unknown
Altitude
Unknown
Speed
Unknown
Apparent Right ascension
Unknown
Apparent Declination
Unknown
Sunlit
N/A
Visualization observer readout
Local Sidereal Time
19:19:11
Azimuth
Unknown
Elevation
Unknown
Doppler factor
Unknown
Orbital elements
Apogee altitude
760.749 km
Perigee altitude
734.488 km
Semi-major axis
7,125.755 km
Eccentricity
0.00184
Inclination
98.6605°
RAAN
17.9004°
Arg. of periapsis
181.0465°
True anomaly
179.07232°
Mean anomaly
179.0689°
Eccentric anomaly
179.07061°
Mean motion
3.60825 °/min
Orbital period
99.77 mins
BSTAR
0.0026876

Documentation

Showing up to 5 results
|